Weather History for KSMN - October, 2012

Change the Weather History Date:

Wednesday, October 3, 2012

  Actual Average Record
Temperature  
Mean Temperature 46 °F -  
Max Temperature 55 °F 63 °F 83 °F (1987)
Min Temperature 37 °F 32 °F 21 °F (1973)
Degree Days  
Heating Degree Days 19    
Moisture  
Dew Point 17 °F    
Average Humidity 29    
Maximum Humidity 39    
Minimum Humidity 18    
Precipitation  
Precipitation 0.00 in - - ()
Sea Level Pressure  
Sea Level Pressure 30.20 in    
Wind  
Wind Speed 12 mph (NE)    
Max Wind Speed 25 mph    
Max Gust Speed 32 mph    
Visibility 10 miles    
Events      
Averages and records for this station are not official NWS values.
T = Trace of Precipitation, MM = Missing Value Source: NWS Daily Summary

Daily Weather History Graph

Daily Weather History Graph

Search for Another Location

Airport or City:

Trip Planner

Search our weather history database for the weather conditions in past years. The results will help you decide how hot, cold, wet, or windy it might be!

Date:

Astronomy

Oct. 03, 2012 Rise Set
Actual Time 7:36 AM MDT 7:11 PM MDT
Civil Twilight 7:07 AM MDT 7:40 PM MDT
Nautical Twilight 6:33 AM MDT 8:14 PM MDT
Astronomical Twilight 5:58 AM MDT 8:48 PM MDT
Moon 8:54 PM MDT 11:14 AM MDT
Length of Visible Light 12h 32m
Length of Day
11h 34m
Waning Gibbous, 88% of the Moon is Illuminated
Oct 3
Waning Gibbous
Oct 8
Last Quarter
Oct 15
New
Oct 21
First Quarter
Oct 29
Full

Hourly Weather History & Observations

Time (MDT) Temp. Windchill Dew Point Humidity Pressure Visibility Wind Dir Wind Speed Gust Speed Precip Events Conditions
12:15 AM 55.4 °F - 26.6 °F 33% 29.88 in 10.0 mi NNE 13.8 mph - N/A   Clear
12:35 AM 55.4 °F - 26.6 °F 33% 29.89 in 10.0 mi North 10.4 mph - N/A   Clear
1:15 AM 51.8 °F - 26.6 °F 38% 29.89 in 10.0 mi North 12.7 mph - N/A   Clear
1:35 AM 51.8 °F - 24.8 °F 35% 29.90 in 10.0 mi North 13.8 mph - N/A   Clear
1:55 AM 51.8 °F - 23.0 °F 33% 29.92 in 10.0 mi North 13.8 mph - N/A   Clear
2:35 AM 53.6 °F - 23.0 °F 30% 29.97 in 9.0 mi North 19.6 mph 25.3 mph N/A   Clear
2:55 AM 51.8 °F - 21.2 °F 30% 30.00 in 7.0 mi NNE 23.0 mph 27.6 mph N/A   Mostly Cloudy
3:15 AM 51.8 °F - 19.4 °F 28% 30.02 in 7.0 mi NE 13.8 mph 23.0 mph N/A   Overcast
3:35 AM 51.8 °F - 19.4 °F 28% 30.01 in 8.0 mi ENE 13.8 mph - N/A   Overcast
3:55 AM 51.8 °F - 19.4 °F 28% 30.01 in 8.0 mi ENE 8.1 mph - N/A   Overcast
4:15 AM 50.0 °F - 17.6 °F 28% 30.01 in 10.0 mi ESE 3.5 mph - N/A   Overcast
4:55 AM 44.6 °F 43.1 °F 21.2 °F 39% 30.02 in 10.0 mi NE 3.5 mph - N/A   Mostly Cloudy
5:15 AM 44.6 °F 39.2 °F 19.4 °F 37% 30.03 in 10.0 mi NNE 10.4 mph - N/A   Partly Cloudy
5:35 AM 46.4 °F 39.5 °F 19.4 °F 34% 30.06 in 10.0 mi North 17.3 mph - N/A   Partly Cloudy
6:35 AM 42.8 °F 34.3 °F 6.8 °F 23% 30.14 in 10.0 mi NNE 19.6 mph - N/A   Partly Cloudy
6:55 AM 42.8 °F 33.8 °F 3.2 °F 19% 30.16 in 10.0 mi North 21.9 mph 32.2 mph N/A   Clear
7:15 AM 42.8 °F 33.1 °F 1.4 °F 18% 30.17 in 10.0 mi North 25.3 mph 32.2 mph N/A   Clear
7:35 AM 39.2 °F 31.2 °F 1.4 °F 21% 30.21 in 10.0 mi NNE 13.8 mph 28.8 mph N/A   Clear
8:15 AM 37.4 °F 31.4 °F 6.8 °F 28% 30.23 in 10.0 mi NNE 8.1 mph - N/A   Clear
8:35 AM 39.2 °F 35.9 °F 8.6 °F 28% 30.25 in 10.0 mi North 4.6 mph - N/A   Clear
8:55 AM 42.8 °F 37.0 °F 10.4 °F 27% 30.25 in 10.0 mi North 10.4 mph 16.1 mph N/A   Clear
9:15 AM 42.8 °F 38.6 °F 10.4 °F 27% 30.27 in 10.0 mi NNE 6.9 mph 16.1 mph N/A   Clear
9:55 AM 44.6 °F 38.1 °F 10.4 °F 25% 30.28 in 10.0 mi NNE 13.8 mph - N/A   Clear
10:15 AM 44.6 °F 37.8 °F 12.2 °F 27% 30.28 in 10.0 mi NNE 15.0 mph 18.4 mph N/A   Clear
10:35 AM 46.4 °F 40.4 °F 12.2 °F 25% 30.28 in 10.0 mi NNE 13.8 mph - N/A   Clear
10:55 AM 46.4 °F 41.1 °F 12.2 °F 25% 30.29 in 10.0 mi North 11.5 mph - N/A   Clear
11:15 AM 46.4 °F 41.9 °F 12.2 °F 25% 30.30 in 10.0 mi NNE 9.2 mph - N/A   Clear
11:55 AM 48.2 °F - 15.8 °F 27% 30.30 in 10.0 mi NNE 5.8 mph - N/A   Clear
12:15 PM 50.0 °F - 17.6 °F 28% 30.31 in 10.0 mi North 8.1 mph - N/A   Clear
12:55 PM 50.0 °F - 19.4 °F 30% 30.31 in 10.0 mi North 8.1 mph - N/A   Overcast
1:15 PM 51.8 °F - 19.4 °F 28% 30.31 in 10.0 mi ESE 4.6 mph - N/A   Overcast
1:35 PM 51.8 °F - 21.2 °F 30% 30.31 in 10.0 mi North 5.8 mph - N/A   Overcast
2:15 PM 51.8 °F - 17.6 °F 26% 30.31 in 10.0 mi ENE 9.2 mph - N/A   Overcast
2:35 PM 51.8 °F - 17.6 °F 26% 30.31 in 10.0 mi NNE 5.8 mph - N/A   Overcast
2:55 PM 51.8 °F - 19.4 °F 28% 30.31 in 10.0 mi North 11.5 mph 16.1 mph N/A   Mostly Cloudy
3:15 PM 51.8 °F - 19.4 °F 28% 30.31 in 10.0 mi North 5.8 mph - N/A   Partly Cloudy
3:35 PM 51.8 °F - 19.4 °F 28% 30.31 in 10.0 mi WNW 4.6 mph - N/A   Clear
3:55 PM 53.6 °F - 21.2 °F 28% 30.30 in 10.0 mi West 4.6 mph - N/A   Clear
4:15 PM 53.6 °F - 19.4 °F 26% 30.30 in 10.0 mi West 3.5 mph - N/A   Partly Cloudy
4:35 PM 53.6 °F - 17.6 °F 24% 30.29 in 10.0 mi NW 4.6 mph - N/A   Mostly Cloudy
5:15 PM 53.6 °F - 17.6 °F 24% 30.29 in 10.0 mi ESE 3.5 mph - N/A   Scattered Clouds
5:35 PM 53.6 °F - 17.6 °F 24% 30.29 in 10.0 mi East 5.8 mph - N/A   Clear
5:55 PM 53.6 °F - 15.8 °F 22% 30.28 in 10.0 mi NW 3.5 mph - N/A   Clear
6:15 PM 53.6 °F - 17.6 °F 24% 30.28 in 10.0 mi East 5.8 mph - N/A   Clear
6:35 PM 51.8 °F - 17.6 °F 26% 30.28 in 10.0 mi ESE 8.1 mph - N/A   Clear
6:55 PM 50.0 °F - 15.8 °F 26% 30.27 in 10.0 mi SE 13.8 mph 18.4 mph N/A   Clear
7:15 PM 48.2 °F - 17.6 °F 30% 30.27 in 10.0 mi SE 13.8 mph - N/A   Clear
7:35 PM 48.2 °F - 17.6 °F 30% 30.28 in 10.0 mi SE 12.7 mph 19.6 mph N/A   Clear
7:55 PM 48.2 °F - 17.6 °F 30% 30.28 in 10.0 mi SE 16.1 mph - N/A   Clear
8:35 PM 46.4 °F 39.0 °F 17.6 °F 32% 30.28 in 10.0 mi SE 19.6 mph 25.3 mph N/A   Clear
8:55 PM 46.4 °F 39.8 °F 19.4 °F 34% 30.28 in 10.0 mi SE 16.1 mph 26.5 mph N/A   Clear
9:15 PM 46.4 °F 40.1 °F 19.4 °F 34% 30.29 in 10.0 mi SE 15.0 mph 23.0 mph N/A   Clear
9:35 PM 46.4 °F 39.5 °F 19.4 °F 34% 30.29 in 10.0 mi SE 17.3 mph 25.3 mph N/A   Clear
9:55 PM 44.6 °F 36.6 °F 19.4 °F 37% 30.29 in 10.0 mi SE 19.6 mph 26.5 mph N/A   Clear
10:15 PM 44.6 °F 37.8 °F 19.4 °F 37% 30.29 in 10.0 mi SE 15.0 mph 21.9 mph N/A   Clear
10:35 PM 44.6 °F 37.2 °F 21.2 °F 39% 30.30 in 10.0 mi ESE 17.3 mph 20.7 mph N/A   Clear
11:15 PM 42.8 °F 35.4 °F 19.4 °F 39% 30.30 in 10.0 mi ESE 15.0 mph 23.0 mph N/A   Clear